PSLV R/B, 44805

Orbit data source: Space-Track

PSLV R/B, 44805 is space debris in SSO originally from a launch on Wed, 27 Nov 2019 UTC launched from the Sirharikota (SRI). Debris objects in space refer to the collection of defunct objects orbiting the Earth. Examples of debris include non-operational satellites, rocket bodies, and fragments generated from explosions, collisions, or faulty payload assembly.

Loading next visibility...
Identifier
44805, 2019-081B
Orbit
SSO
Country
Flag of ININ / IND
Related business
Manufacturer
VSSC/LPSC
Mission
Spacecraft
Bus & Motor
PS-4, Unknown motor
Mass
920 kg wet, 920 kg dry
Launch date (UTC)
2019-11-27 (7 years ago)
Launch vehicle
Unknown
Launch site
Sirharikota (SRI)
Object type
Payload
Rocket body
Debris
Shape & HBR
Cyl + Cyl + 2 Nozzle, 1.6 m
Radar Cross Section
3.727 m², Large (>1 m²)

Expand to show TLE details & history
Last TLE update: 9 hours ago

TLE from 9 hours ago
0 PSLV R/B
1 44805U 19081B   26254.63837998  .00026179  00000-0  31579-3 0  9995
2 44805  97.1658 295.3709 0017348 133.3969 226.8736 15.60561566377788
Epoch: 2026-09-11T15:19Z
TLE epoch observation values (Epoch: 2026-09-11T15:19:16.030Z)
Latitude
-0.00007°
Longitude
74.89526°
Altitude
397.22 km
Speed
7.667 km/s
True Right ascension
19h 41m 29s
True Declination
0° 00' 00"
Sunlit
Object was in full shadow at epoch
Visualization orbit readout
Latitude
Unknown
Longitude
Unknown
Altitude
Unknown
Speed
Unknown
Apparent Right ascension
Unknown
Apparent Declination
Unknown
Sunlit
N/A
Visualization observer readout
Local Sidereal Time
16:31:58
Azimuth
Unknown
Elevation
Unknown
Doppler factor
Unknown
Orbital elements
Apogee altitude
394.665 km
Perigee altitude
371.206 km
Semi-major axis
6,761.073 km
Eccentricity
0.00173
Inclination
97.1658°
RAAN
295.3709°
Arg. of periapsis
133.3969°
True anomaly
226.72873°
Mean anomaly
226.8736°
Eccentric anomaly
226.80114°
Mean motion
3.90409 °/min
Orbital period
92.21 mins
BSTAR
0.00031579
Loading maneuver chart data...
Computing Atmospheric mass density...
Loading historical data...
Loading historical data...
Loading historical data...
Loading historical data...
Loading historical data...
Loading historical data...
Loading historical data...

Documentation

Showing up to 5 results
|